| time (UTC) | temp C | wind direction | speed KPH | gust KPH | rain 1hr cm | rain 24hr cm | rain mn cm | humidity % | barometer mb |
| 20260510010036 | 6 | 0 | 0.0 | 4.8 | 0.00 | 0.71 | 0.71 | 95 | 1010.9 |
| 20260510004536 | 6 | 0 | 0.0 | 11.3 | 0.00 | 0.71 | 0.71 | 95 | 1010.9 |
| 20260510003051 | 6 | 0 | 1.6 | 6.4 | 0.00 | 0.71 | 0.71 | 94 | 1010.7 |
| 20260510001541 | 7 | 0 | 0.0 | 0.0 | 0.00 | 0.71 | 0.71 | 94 | 1010.6 |
| 20260510000039 | 7 | 0 | 0.0 | 0.0 | 0.00 | 0.71 | 0.71 | 94 | 1010.2 |
| 20260509234545 | 7 | 171 | 0.0 | 3.2 | 0.00 | 0.71 | 0.71 | 94 | 1010.1 |
| 20260509233034 | 7 | 0 | 0.0 | 3.2 | 0.00 | 0.71 | 0.71 | 94 | 1010.0 |
| 20260509231536 | 7 | 0 | 0.0 | 6.4 | 0.00 | 0.71 | 0.71 | 94 | 1010.1 |
| 20260509230036 | 7 | 0 | 0.0 | 3.2 | 0.00 | 0.71 | 0.71 | 94 | 1010.2 |
| 20260509224536 | 7 | 0 | 0.0 | 1.6 | 0.00 | 0.71 | 0.71 | 94 | 1010.3 |
| 20260509223035 | 7 | 228 | 0.0 | 4.8 | 0.00 | 0.71 | 0.71 | 94 | 1010.3 |
| 20260509221536 | 7 | 311 | 0.0 | 1.6 | 0.00 | 0.71 | 0.71 | 94 | 1010.3 |
| 20260509220052 | 7 | 0 | 0.0 | 0.0 | 0.00 | 0.71 | 0.71 | 94 | 1010.6 |
| 20260509214935 | 7 | 108 | 0.0 | 0.0 | 0.00 | 0.05 | 0.69 | 94 | 1010.6 |
| 20260509214540 | 7 | 0 | 0.0 | 4.8 | 0.03 | 0.71 | 0.71 | 94 | 1010.7 |
| 20260509213041 | 7 | 0 | 0.0 | 1.6 | 0.03 | 0.71 | 0.71 | 94 | 1010.8 |
| 20260509211543 | 7 | 0 | 0.0 | 1.6 | 0.03 | 0.71 | 0.71 | 94 | 1010.8 |
| 20260509210036 | 7 | 278 | 0.0 | 4.8 | 0.00 | 0.69 | 0.69 | 93 | 1010.8 |
| 20260509204542 | 7 | 0 | 0.0 | 1.6 | 0.00 | 0.69 | 0.69 | 93 | 1010.7 |
| 20260509203037 | 7 | 0 | 0.0 | 3.2 | 0.00 | 0.69 | 0.69 | 93 | 1010.8 |
| 20260509201534 | 7 | 0 | 0.0 | 4.8 | 0.03 | 0.69 | 0.69 | 93 | 1010.9 |
| 20260509200041 | 7 | 121 | 1.6 | 9.7 | 0.08 | 0.69 | 0.69 | 93 | 1010.8 |
| 20260509194541 | 7 | 0 | 0.0 | 6.4 | 0.13 | 0.69 | 0.69 | 94 | 1010.9 |
| 20260509193041 | 7 | 227 | 1.6 | 8.0 | 0.18 | 0.69 | 0.69 | 93 | 1011.1 |
| 20260509191536 | 7 | 0 | 0.0 | 8.0 | 0.20 | 0.66 | 0.66 | 93 | 1011.2 |
| 20260509190039 | 7 | 0 | 0.0 | 4.8 | 0.15 | 0.58 | 0.58 | 93 | 1011.4 |
| 20260509184538 | 7 | 160 | 0.0 | 6.4 | 0.18 | 0.56 | 0.56 | 93 | 1011.6 |
| 20260509183035 | 7 | 0 | 0.0 | 4.8 | 0.18 | 0.51 | 0.51 | 93 | 1011.5 |
| 20260509181535 | 7 | 0 | 0.0 | 6.4 | 0.15 | 0.46 | 0.46 | 94 | 1011.5 |
| 20260509180035 | 7 | 128 | 0.0 | 4.8 | 0.15 | 0.41 | 0.41 | 94 | 1011.7 |
| 20260509174536 | 7 | 0 | 0.0 | 0.0 | 0.18 | 0.38 | 0.38 | 94 | 1011.9 |
| 20260509173038 | 6 | 0 | 0.0 | 0.0 | 0.18 | 0.33 | 0.33 | 93 | 1012.1 |
| 20260509171538 | 6 | 0 | 0.0 | 0.0 | 0.18 | 0.28 | 0.28 | 92 | 1012.3 |
| 20260509170038 | 6 | 0 | 0.0 | 0.0 | 0.20 | 0.25 | 0.25 | 92 | 1012.4 |
| 20260509164536 | 7 | 0 | 0.0 | 0.0 | 0.15 | 0.20 | 0.20 | 91 | 1012.5 |
| 20260509163034 | 7 | 0 | 0.0 | 0.0 | 0.13 | 0.15 | 0.15 | 90 | 1012.7 |
| 20260509161533 | 7 | 0 | 0.0 | 4.8 | 0.05 | 0.08 | 0.08 | 88 | 1012.7 |
| 20260509160035 | 8 | 0 | 0.0 | 3.2 | 0.03 | 0.05 | 0.05 | 87 | 1013.0 |
| 20260509154536 | 8 | 0 | 0.0 | 3.2 | 0.05 | 0.05 | 0.05 | 87 | 1012.9 |
| 20260509153036 | 8 | 0 | 0.0 | 3.2 | 0.03 | 0.03 | 0.03 | 86 | 1013.2 |
| 20260509152054 | 8 | 55 | 0.0 | 6.4 | 0.00 | 0.00 | 0.03 | 86 | 1013.2 |
| 20260509151535 | 8 | 0 | 0.0 | 3.2 | 0.03 | 0.03 | 0.03 | 86 | 1013.2 |
| 20260509150036 | 8 | 0 | 0.0 | 1.6 | 0.03 | 0.03 | 0.03 | 83 | 1013.1 |
| 20260509144544 | 8 | 0 | 0.0 | 0.0 | 0.00 | 0.00 | 0.00 | 80 | 1013.0 |
| 20260509143039 | 9 | 159 | 1.6 | 8.0 | 0.00 | 0.00 | 0.00 | 71 | 1012.9 |
| 20260509141539 | 9 | 0 | 1.6 | 4.8 | 0.00 | 0.00 | 0.00 | 64 | 1012.9 |
| 20260509140054 | 9 | 0 | 0.0 | 9.7 | 0.00 | 0.00 | 0.00 | 64 | 1012.7 |
| 20260509134537 | 9 | 0 | 0.0 | 6.4 | 0.00 | 0.00 | 0.00 | 62 | 1012.8 |
| 20260509133839 | 10 | 82 | 0.0 | 0.0 | 0.00 | 0.00 | 0.00 | 61 | 1012.8 |
| 20260509133344 | 10 | 80 | 0.0 | 0.0 | 0.00 | 0.00 | 0.00 | 61 | 1012.8 |
| 20260509133036 | 9 | 0 | 0.0 | 9.7 | 0.00 | 0.00 | 0.00 | 61 | 1012.8 |
| 20260509132849 | 10 | 155 | 0.0 | 4.8 | 0.00 | 0.00 | 0.00 | 60 | 1012.7 |
| 20260509132345 | 10 | 130 | 0.0 | 6.4 | 0.00 | 0.00 | 0.00 | 61 | 1012.6 |
| 20260509131848 | 10 | 313 | 0.0 | 4.8 | 0.00 | 0.00 | 0.00 | 61 | 1012.7 |
| 20260509131545 | 9 | 138 | 1.6 | 11.3 | 0.00 | 0.00 | 0.00 | 61 | 1012.8 |
| 20260509130735 | 9 | 109 | 1.6 | 9.7 | 0.00 | 0.00 | 0.00 | 60 | 1012.7 |
| 20260509130035 | 8 | 0 | 3.2 | 11.3 | 0.00 | 0.00 | 0.00 | 63 | 1012.7 |
| 20260509125603 | 8 | 56 | 1.6 | 9.7 | 0.00 | 0.00 | 0.00 | 63 | 1012.6 |
| 20260509125048 | 8 | 75 | 0.0 | 9.7 | 0.00 | 0.00 | 0.00 | 64 | 1013.0 |
| 20260509124542 | 7 | 340 | 1.6 | 9.7 | 0.00 | 0.00 | 0.00 | 67 | 1013.1 |
| 20260509124539 | 8 | 55 | 0.0 | 4.8 | 0.00 | 0.00 | 0.00 | 67 | 1013.1 |
| 20260509123032 | 5 | 332 | 0.0 | 4.8 | 0.00 | 0.00 | 0.00 | 79 | 1013.2 |
| 20260509121551 | 4 | 0 | 0.0 | 0.0 | 0.00 | 0.00 | 0.00 | 84 | 1013.4 |
| 20260509120038 | 3 | 0 | 0.0 | 0.0 | 0.00 | 0.00 | 0.00 | 87 | 1013.5 |
| 20260509114535 | 2 | 0 | 0.0 | 0.0 | 0.00 | 0.00 | 0.00 | 92 | 1013.6 |
| 20260509113057 | 1 | 0 | 0.0 | 0.0 | 0.00 | 0.00 | 0.00 | 93 | 1013.8 |
| 20260509111538 | 0 | 0 | 0.0 | 0.0 | 0.00 | 0.00 | 0.00 | 94 | 1013.6 |
| 20260509110038 | 0 | 0 | 0.0 | 0.0 | 0.00 | 0.00 | 0.00 | 94 | 1013.7 |
| 20260509104537 | -1 | 0 | 0.0 | 0.0 | 0.00 | 0.00 | 0.00 | 94 | 1013.6 |
| 20260509103037 | -1 | 0 | 0.0 | 0.0 | 0.00 | 0.00 | 0.00 | 93 | 1013.7 |
| 20260509101537 | -1 | 0 | 0.0 | 0.0 | 0.00 | 0.00 | 0.00 | 93 | 1013.7 |
| 20260509100035 | -1 | 0 | 0.0 | 0.0 | 0.00 | 0.00 | 0.00 | 92 | 1013.6 |
| 20260509094538 | -1 | 0 | 0.0 | 0.0 | 0.00 | 0.00 | 0.00 | 92 | 1013.2 |
| 20260509093038 | -1 | 0 | 0.0 | 0.0 | 0.00 | 0.00 | 0.00 | 92 | 1013.0 |
| 20260509091536 | -1 | 0 | 0.0 | 0.0 | 0.00 | 0.00 | 0.00 | 91 | 1012.8 |
| 20260509090035 | -1 | 0 | 0.0 | 0.0 | 0.00 | 0.00 | 0.00 | 92 | 1012.8 |
| 20260509084538 | -1 | 0 | 0.0 | 0.0 | 0.00 | 0.00 | 0.00 | 91 | 1012.7 |
| 20260509083046 | 0 | 0 | 0.0 | 0.0 | 0.00 | 0.00 | 0.00 | 92 | 1012.6 |
| 20260509081536 | -1 | 0 | 0.0 | 0.0 | 0.00 | 0.00 | 0.00 | 92 | 1012.3 |
| 20260509080037 | -1 | 0 | 0.0 | 0.0 | 0.00 | 0.00 | 0.00 | 91 | 1012.3 |
| 20260509074537 | 0 | 0 | 0.0 | 0.0 | 0.00 | 0.00 | 0.00 | 91 | 1012.4 |
| 20260509073036 | 0 | 0 | 0.0 | 0.0 | 0.00 | 0.00 | 0.00 | 91 | 1012.7 |
| 20260509071540 | -1 | 0 | 0.0 | 0.0 | 0.00 | 0.00 | 0.00 | 91 | 1012.7 |
| 20260509070733 | 0 | 70 | 0.0 | 0.0 | 0.00 | 0.00 | 0.00 | 91 | 1012.7 |
| 20260509070037 | -1 | 0 | 0.0 | 0.0 | 0.00 | 0.00 | 0.00 | 90 | 1012.8 |
| 20260509064536 | -1 | 0 | 0.0 | 0.0 | 0.00 | 0.00 | 0.00 | 90 | 1012.9 |
| 20260509063035 | 0 | 0 | 0.0 | 0.0 | 0.00 | 0.00 | 0.00 | 89 | 1012.9 |
| 20260509061541 | 0 | 0 | 0.0 | 0.0 | 0.00 | 0.00 | 0.00 | 89 | 1012.9 |
| 20260509060037 | 0 | 0 | 0.0 | 0.0 | 0.00 | 0.00 | 0.00 | 88 | 1012.9 |
| 20260509054540 | 0 | 0 | 0.0 | 0.0 | 0.00 | 0.00 | 0.00 | 88 | 1013.0 |
| 20260509053058 | 0 | 0 | 0.0 | 0.0 | 0.00 | 0.00 | 0.00 | 87 | 1012.9 |
| 20260509051536 | 0 | 0 | 0.0 | 0.0 | 0.00 | 0.00 | 0.00 | 87 | 1012.8 |
| 20260509050037 | 0 | 0 | 0.0 | 0.0 | 0.00 | 0.00 | 0.00 | 86 | 1012.7 |
| 20260509044534 | 0 | 0 | 0.0 | 0.0 | 0.00 | 0.00 | 0.00 | 85 | 1012.5 |
| 20260509043046 | 1 | 0 | 0.0 | 0.0 | 0.00 | 0.00 | 0.00 | 84 | 1012.5 |
| 20260509041550 | 1 | 0 | 0.0 | 0.0 | 0.00 | 0.00 | 0.00 | 83 | 1012.7 |
| 20260509040035 | 1 | 0 | 0.0 | 0.0 | 0.00 | 0.00 | 0.00 | 82 | 1012.5 |
| 20260509034546 | 2 | 0 | 0.0 | 0.0 | 0.00 | 0.00 | 0.00 | 81 | 1012.5 |
| 20260509033037 | 2 | 0 | 0.0 | 0.0 | 0.00 | 0.00 | 0.00 | 80 | 1012.5 |
| 20260509031539 | 2 | 0 | 0.0 | 0.0 | 0.00 | 0.00 | 0.00 | 78 | 1012.3 |
| 20260509030036 | 3 | 0 | 0.0 | 0.0 | 0.00 | 0.00 | 0.00 | 77 | 1012.2 |
| 20260509024536 | 3 | 0 | 0.0 | 0.0 | 0.00 | 0.00 | 0.00 | 75 | 1012.0 |
| 20260509023037 | 4 | 0 | 0.0 | 0.0 | 0.00 | 0.00 | 0.00 | 73 | 1011.9 |
| 20260509021538 | 5 | 0 | 0.0 | 0.0 | 0.00 | 0.00 | 0.00 | 72 | 1011.7 |
| 20260509020047 | 5 | 0 | 0.0 | 0.0 | 0.00 | 0.00 | 0.00 | 70 | 1011.5 |
| 20260509014535 | 6 | 0 | 0.0 | 0.0 | 0.00 | 0.00 | 0.00 | 66 | 1011.4 |
| 20260509013047 | 7 | 0 | 0.0 | 0.0 | 0.00 | 0.00 | 0.00 | 61 | 1011.1 |
| 20260509011536 | 7 | 0 | 0.0 | 0.0 | 0.00 | 0.00 | 0.00 | 58 | 1011.0 |